Regional Weather Roundup
Issued by NWS

Home | Current Version | Previous Version | Graphics & Text | Print | Product List | Glossary Off
Versions: 1 2 3 4 5 6 7 8 9 10 11 12 13 14 15 16 17 18 19 20 21 22 23 24 25 26 27 28 29 30 31 32 33 34 35 36 37 38 39 40 41 42 43 44 45 46 47 48 49 50

000
ASUS43 KDMX 211601
RWRIA

WEATHER ROUNDUP FOR IOWA
NATIONAL WEATHER SERVICE DES MOINES IA
1100 AM CDT MON MAY 21 2018

NOTE: "FAIR" INDICATES FEW OR NO CLOUDS BELOW 12,000 FEET WITH NO
SIGNIFICANT WEATHER AND/OR OBSTRUCTIONS TO VISIBILITY.

* - THESE STATIONS ARE NOT NWS STATIONS...THUS NOT UNDER NWS
QUALITY CONTROL.  THEY ALSO DO NOT REPORT WEATHER SUCH
AS PRECIPITATION OR FOG.

IAZ001>003-012>014-020>022-031>034-043>046-211700-
   NORTHWEST IOWA

CITY           SKY/WX    TMP DP  RH WIND       PRES   REMARKS
CARROLL *      CLOUDY   N/A N/A N/A CALM      30.03F HAZE
CHEROKEE *     CLOUDY    59  59 100 S5        30.04S FOG
DENISON *      CLOUDY    61  61 100 CALM      30.05S FOG
LE MARS *      CLOUDY    59  57  94 W6        30.03F FOG
ORANGE CITY *  CLOUDY    59  57  94 S3        30.04S FOG
SHELDON *      CLOUDY    57  57 100 S5        30.02F FOG
SIOUX CITY     CLOUDY    59  57  93 NW6       30.04S
SPENCER        FOG       58  56  93 E7        30.04F VSB 1
STORM LAKE *   CLOUDY    57  57 100 S5        30.04S FOG
$$

IAZ055>058-069>071-079>083-090>094-211700-
   SOUTHWEST IOWA

CITY           SKY/WX    TMP DP  RH WIND       PRES   REMARKS
ATLANTIC *     MOSUNNY   63  61  94 CALM      30.03F FOG
AUDUBON *      CLOUDY    61  59  94 CALM      30.04F FOG
CLARINDA *     CLOUDY    61  59  94 W6        30.07S
COUNCIL BLFS * CLOUDY    59  59 100 W8        30.05S FOG
CRESTON *      CLOUDY    63  61  94 VRB3      30.05F
HARLAN  *      CLOUDY    61  61 100 CALM      30.07S FOG
LAMONI         CLOUDY    64  61  90 W6        30.04S
RED OAK *      CLOUDY    63  59  88 W6        30.04S FOG
SHENANDOAH *   CLOUDY    63  59  88 NW6       30.06S
$$

IAZ047>049-059>061-072>074-084-211700-
   CENTRAL IOWA

CITY           SKY/WX    TMP DP  RH WIND       PRES   REMARKS
AMES           CLOUDY    60  56  86 CALM      30.03F
ANKENY *       PTSUNNY   61  57  88 CALM      30.04S
BOONE *        CLOUDY    59  59 100 N3        30.03S FOG
CHARITON *     CLOUDY    63  63 100 W7        30.02S FOG
DES MOINES     CLOUDY    62  58  86 CALM      30.02S FOG
GRINNELL*      CLOUDY    58  57  96 E5        30.04S FOG
KNOXVILLE *    CLOUDY    61  61 100 W5        30.01S FOG
MARSHALLTOWN   CLOUDY    58  57  97 CALM      30.03R FOG
NEWTON *       CLOUDY    59  59 100 CALM      30.03S FOG
PELLA *        CLOUDY    60  59  97 CALM      30.03S FOG
PERRY *        CLOUDY    61  60  95 CALM      30.04S
$$

IAZ004>006-015-016-023>025-035-036-211700-
   NORTH CENTRAL IOWA

CITY           SKY/WX    TMP DP  RH WIND       PRES   REMARKS
ALGONA *       PTSUNNY   57  57 100 MISG      30.05S FOG
CLARION *      CLOUDY    57  55  94 CALM      30.05S FOG
ESTHERVILLE    CLOUDY    57  56  96 SE8       30.04S FOG
FORT DODGE *   CLOUDY    58  57  97 E3        30.05S FOG
MASON CITY     CLOUDY    56  55  97 SE7       30.07S FOG
FOREST CITY *  CLOUDY    59  55  88 SE5       30.05F
IOWA FALLS *   CLOUDY    57  55  94 E5        30.05F FOG
$$

IAZ007>011-017>019-026>030-037>042-050>054-066-211700-
   NORTHEAST IOWA

CITY           SKY/WX    TMP DP  RH WIND       PRES   REMARKS
CEDAR RAPIDS   DRZL/FOG  56  56 100 E8        30.02F VSB 1
CHARLES CITY * CLOUDY    55  54  94 E8        30.06S
CLINTON *      LGT RAIN  58  57  97 SE10      30.06S FOG
DECORAH *      CLOUDY    54  54 100 NE6       30.05S
DUBUQUE        LGT RAIN  55  54  96 E7        30.06F FOG
MONTICELLO *   LGT RAIN  57  57 100 E3        30.04S
OELWEIN *      CLOUDY    55  55 100 E9        30.04F
WATERLOO       CLOUDY    57  55  93 E7        30.03S
$$

IAZ064-065-067-068-078-211700-
   EAST CENTRAL IOWA

CITY           SKY/WX    TMP DP  RH WIND       PRES   REMARKS
DAVENPORT      CLOUDY    58  56  93 SE10      30.06F FOG
IOWA CITY      CLOUDY    59  57  93 E8        30.04S FOG
MUSCATINE *    CLOUDY    61  59  94 SE7       30.04S FOG
QUAD CITIES    CLOUDY    60  58  92 SE8       30.05S FOG
$$

IAZ062-063-075>077-085>089-095>099-211700-
   SOUTHEAST IOWA

CITY           SKY/WX    TMP DP  RH WIND       PRES   REMARKS
BURLINGTON     CLOUDY    64  63  96 S6        30.02F FOG
FAIRFIELD *    CLOUDY    66  64  94 S8        30.01S
FORT MADISON * CLOUDY    66  66 100 CALM      30.03S FOG
KEOKUK *       CLOUDY    68  66  94 VRB6G12   30.01F
OSKALOOSA *    CLOUDY    63  62  98 SE6       30.01S FOG
CENTERVILLE *    N/A     66  66 100 W9        30.04R
OTTUMWA        CLOUDY    67  64  90 SW8       30.00S
WASHINGTON *   CLOUDY    63  63 100 SE10      30.03S FOG
$$

ABBREVIATIONS USED IN REMARKS
   TC - TEMPERATURES IN CELSIUS
  WCI - WIND CHILL INDEX
   HX - HEAT INDEX
  VSB - VISIBILITY
$$




USA.gov is the U.S. government's official web portal to all federal, state and local government web resources and services.